Theta_e
313 314 315 314 316 318 318 319 319 321 322 320 319 319 320 324 321 319 328 336 329 334 345 342 339 342 341 341 340 341 344 345 344 346 345 342 341 348 355 358 364 369 367 364 367 368 365 363 362 363 364 365 366 366 367 366 365 367 368 367 368 369 367 366 366 365 364 363 362 362 362 361 360 361 360 360 361 361 362 361 358 357 358 360 362 362 363
311 311 312 313 314 316 316 317 318 320 321 320 320 321 322 324 325 326 331 332 331 338 344 340 341 342 341 342 342 344 347 346 346 346 345 342 344 349 352 353 358 365 372 372 371 373 372 366 364 364 364 365 367 366 366 366 365 366 367 367 368 369 368 367 366 365 364 363 363 362 362 362 361 361 362 361 360 360 361 361 359 357 356 359 362 362 363
312 311 312 312 313 314 314 315 318 319 319 320 320 321 322 324 325 327 330 328 331 340 341 340 341 341 342 344 345 345 345 343 343 346 346 346 346 349 349 352 354 358 370 378 374 373 375 371 365 365 364 366 365 365 365 366 366 366 366 367 367 368 368 367 365 365 364 363 363 363 363 363 362 362 362 361 359 359 360 361 360 358 355 357 361 362 362
312 311 312 312 312 313 313 313 316 317 317 319 320 322 323 324 324 326 326 323 330 342 342 340 341 341 342 344 344 342 342 343 345 347 349 349 349 350 352 353 355 354 359 370 368 362 365 368 365 364 364 366 364 364 365 365 366 365 366 367 367 368 369 369 367 366 366 364 364 363 363 364 363 362 362 362 360 358 359 360 360 359 357 357 358 361 362
313 312 311 312 311 312 312 313 314 316 317 319 321 322 323 324 324 324 323 323 332 344 344 341 342 342 343 343 341 342 345 348 349 348 350 351 350 352 354 354 357 357 357 362 364 362 362 360 357 358 361 362 363 365 365 366 366 365 365 367 367 368 369 369 368 368 367 366 365 365 365 365 364 363 362 361 361 358 358 360 361 361 360 358 357 358 361
313 312 312 313 313 313 313 314 315 317 318 318 320 321 322 324 324 323 326 327 332 340 341 342 343 342 343 342 340 343 345 346 346 345 346 348 348 349 353 353 356 359 360 362 364 365 364 361 356 355 354 358 363 364 364 365 366 365 366 367 367 369 369 369 369 369 368 368 367 366 366 365 365 364 362 363 361 359 359 360 361 362 361 360 358 357 359
312 313 313 314 314 314 314 315 316 317 317 318 320 320 322 323 322 323 326 326 329 336 339 340 340 340 340 339 339 338 338 338 341 341 342 343 345 347 349 352 353 356 359 360 363 363 364 364 363 360 356 355 360 364 364 364 365 365 365 367 368 369 370 370 370 370 370 369 367 367 366 366 367 365 364 363 362 360 359 359 362 364 363 361 360 358 358
312 313 313 314 314 313 313 315 315 317 320 321 322 323 323 322 324 328 334 332 331 336 338 336 337 338 338 338 337 333 332 334 335 337 340 340 341 344 347 349 351 354 356 358 360 362 363 365 366 367 362 355 355 362 365 364 365 365 366 367 369 370 371 371 371 372 371 370 369 368 367 367 367 367 365 364 363 362 360 360 362 364 364 363 362 359 359
313 313 312 314 314 313 313 316 318 321 325 327 329 329 329 328 329 332 336 338 335 335 336 335 336 336 335 337 335 331 329 331 332 334 336 337 339 341 344 347 349 352 353 356 359 362 364 365 365 367 366 360 357 360 362 363 364 365 365 368 370 370 371 372 371 372 372 372 371 369 368 368 369 368 366 365 363 362 361 360 362 364 366 364 363 362 360
312 312 312 314 314 314 316 320 324 325 326 327 330 330 331 332 333 332 334 336 334 334 335 334 334 336 336 336 335 330 327 329 331 332 333 335 338 341 343 346 347 349 351 353 356 359 362 363 363 364 366 365 362 362 362 363 363 364 364 368 370 371 372 371 372 372 373 372 372 371 369 369 369 369 368 366 364 364 363 362 363 364 366 366 364 363 362
312 312 312 313 314 314 319 325 326 324 324 326 327 327 329 332 331 329 330 332 331 332 332 333 335 339 339 337 334 329 326 327 329 331 332 333 337 339 342 343 345 346 348 351 355 358 361 364 365 364 364 365 364 365 364 362 362 363 364 366 369 372 371 371 373 374 374 374 373 372 371 371 371 371 370 366 365 364 363 362 363 363 366 367 367 365 363
315 313 313 313 313 316 323 326 324 322 322 324 326 329 330 330 329 327 328 329 328 329 330 332 334 335 335 333 330 327 325 326 328 330 330 331 334 338 340 340 342 344 347 350 354 357 359 362 366 367 364 362 363 364 365 363 362 364 364 364 368 371 371 372 373 374 374 375 373 373 374 373 372 372 370 367 366 365 364 362 361 362 364 367 368 367 365
316 315 314 312 312 317 323 323 322 322 320 320 325 329 330 328 327 326 326 326 325 326 328 330 331 331 329 328 327 326 326 326 326 328 330 330 331 335 337 338 340 342 345 348 352 355 358 362 366 367 365 362 360 361 364 364 363 363 364 365 366 370 371 372 373 373 374 375 374 373 374 374 373 371 370 369 368 366 365 363 362 361 362 363 366 367 366
315 315 314 314 313 318 322 321 320 321 320 321 325 327 326 326 325 325 325 324 324 325 325 326 328 328 327 326 325 325 326 326 325 326 328 329 329 332 335 336 338 340 343 346 350 354 359 363 366 368 365 361 360 362 366 365 363 363 365 365 365 369 371 372 373 373 374 373 373 373 373 374 373 371 371 371 370 368 366 364 364 362 360 360 362 366 367
315 314 314 315 316 318 319 320 321 323 324 324 325 325 323 324 324 324 323 323 322 323 323 323 324 325 326 325 325 324 325 326 324 324 326 328 328 331 333 334 335 338 341 344 348 352 357 363 367 369 365 359 361 365 368 366 363 364 366 365 367 370 372 372 373 373 373 373 373 373 373 374 373 371 372 372 371 369 368 366 366 364 362 361 361 364 365
316 316 316 317 317 317 317 319 322 324 324 323 323 323 323 324 323 322 323 322 321 321 321 321 323 323 324 325 324 325 325 325 324 324 326 327 328 331 332 333 334 336 339 342 346 351 357 363 368 371 369 362 362 369 371 366 364 365 367 366 368 372 374 373 373 373 374 374 373 372 373 374 372 372 372 372 371 371 369 368 367 366 365 364 362 363 364
315 316 316 316 316 316 316 318 320 322 322 321 321 321 323 323 322 321 322 322 321 320 320 320 321 322 323 323 323 324 324 324 324 325 326 327 328 329 331 332 333 334 337 341 345 351 358 365 369 372 371 365 367 374 372 365 365 366 367 368 371 373 375 374 374 373 373 374 374 373 373 374 373 372 372 372 372 372 370 369 368 367 368 366 364 363 363
315 314 314 315 315 315 316 316 318 319 320 320 320 320 321 321 321 321 321 320 320 320 320 320 321 322 321 322 323 323 324 324 324 324 325 327 327 328 330 332 332 334 336 340 344 349 356 363 368 371 370 365 369 376 373 367 367 367 368 370 372 373 374 374 373 373 373 372 374 373 373 374 373 373 372 372 371 372 371 370 369 369 368 367 366 365 364
314 315 314 315 315 315 315 315 316 317 319 319 319 319 320 320 320 320 320 320 320 319 319 320 321 321 321 321 323 324 324 324 324 324 325 327 327 327 330 332 333 334 336 339 341 345 351 359 366 368 369 369 369 373 371 370 368 366 370 372 372 373 374 374 373 372 372 371 372 372 372 373 373 372 372 371 370 372 371 369 369 369 369 368 368 366 365
313 314 314 313 313 314 314 315 315 317 319 319 318 318 319 319 319 319 319 319 320 319 319 320 320 320 321 321 323 324 324 324 324 324 326 327 328 328 330 332 333 334 335 337 339 341 347 357 362 365 368 371 370 370 371 370 367 367 370 373 372 374 374 373 373 372 371 371 371 371 371 372 372 371 371 371 370 371 369 369 369 370 370 369 368 369 367
312 313 313 312 312 313 314 314 315 317 318 319 318 317 318 318 318 319 319 319 319 319 319 320 319 320 322 322 322 322 323 323 323 325 326 327 328 329 330 332 333 333 334 336 337 339 345 354 358 361 363 366 368 369 370 368 365 367 371 373 373 373 374 373 371 372 371 371 371 371 371 371 371 371 371 371 371 370 369 369 369 369 369 369 369 368 367
311 312 312 312 312 313 313 313 313 315 316 317 318 317 317 317 317 318 318 319 319 319 319 319 320 320 321 322 321 322 323 323 324 325 326 327 329 329 329 329 331 332 333 334 336 338 344 350 353 355 359 362 364 367 369 369 367 367 371 373 373 373 373 374 371 370 371 373 372 370 370 371 369 367 367 369 370 370 369 369 369 368 368 368 368 368 366
310 310 310 310 311 311 311 311 313 314 315 316 317 317 317 317 317 317 318 318 319 320 320 320 320 320 321 321 321 322 323 323 323 324 326 326 327 328 328 328 329 331 332 333 335 337 342 346 348 351 356 358 360 362 366 369 369 369 372 374 376 374 373 372 371 370 371 371 372 370 370 369 365 363 362 363 367 369 371 370 368 368 368 367 368 366 365
310 309 309 309 310 311 312 312 313 314 314 316 317 317 317 317 317 318 318 318 319 319 320 320 320 320 321 322 321 322 323 323 323 324 325 324 325 327 327 327 328 331 332 333 333 335 338 341 344 347 350 352 355 360 366 367 368 369 369 370 372 374 372 372 371 369 369 371 371 372 371 367 364 364 362 360 360 363 366 368 367 367 367 367 367 366 366
311 310 310 311 311 312 313 313 314 314 316 317 317 317 317 317 318 318 318 318 319 319 320 320 321 320 321 322 322 322 323 323 323 324 325 324 325 326 327 327 328 330 332 332 332 334 336 337 339 341 344 346 349 354 360 361 361 364 363 362 364 370 372 371 371 370 370 370 370 371 373 369 366 366 365 363 359 356 357 361 364 365 366 367 367 367 367
312 311 311 311 313 313 313 314 315 315 316 317 318 318 318 319 319 319 318 319 320 320 320 321 321 320 320 321 321 322 323 323 322 324 325 325 326 326 325 327 328 329 331 332 331 332 334 335 336 337 339 341 343 349 355 358 359 361 362 360 360 365 367 368 369 369 369 371 370 371 373 371 369 369 368 365 361 357 355 356 358 360 362 365 366 367 368
312 312 311 311 312 312 313 314 314 315 316 318 318 318 319 320 320 320 319 319 319 320 320 321 320 320 320 320 320 321 322 323 323 324 324 326 326 325 325 326 326 327 330 331 330 330 332 334 334 335 337 339 341 345 351 355 354 354 354 352 351 353 354 354 354 356 361 367 368 365 363 362 364 368 369 368 365 361 359 360 359 358 358 359 362 364 366
311 312 311 311 311 312 312 313 314 315 316 317 318 319 320 320 320 319 320 320 320 320 320 320 320 320 320 320 320 321 322 323 324 323 323 326 327 325 324 325 326 327 330 330 328 329 330 331 332 333 335 337 339 341 347 350 348 348 348 348 348 350 349 347 346 347 352 358 361 359 359 357 356 356 360 364 366 365 364 365 365 361 356 355 358 361 362
311 312 312 311 311 312 313 313 314 315 315 316 317 319 319 319 320 319 319 319 320 320 320 320 320 321 321 321 321 322 323 323 323 322 323 325 326 324 323 325 326 328 329 329 327 327 328 329 330 332 333 335 337 339 344 348 346 345 346 347 349 351 349 346 347 351 351 353 356 359 361 360 359 355 352 353 359 364 367 367 365 360 355 354 356 356 357
312 312 312 312 312 312 312 312 313 313 314 314 316 317 317 318 319 320 320 320 320 320 320 320 320 320 320 321 322 322 322 323 323 323 324 325 325 324 324 326 328 329 330 327 326 325 326 327 328 329 331 334 335 336 341 346 346 344 345 344 346 348 349 347 349 353 353 351 355 358 357 357 359 357 350 348 351 357 361 362 360 356 354 354 356 355 353
311 311 311 311 312 311 311 312 312 313 314 314 314 315 316 317 319 320 320 320 320 319 320 320 319 319 320 321 321 322 322 323 324 324 325 325 324 324 326 327 329 330 329 326 324 324 325 325 326 327 330 332 332 333 338 342 343 343 344 344 343 344 346 348 350 351 351 350 353 356 358 358 357 354 351 351 354 355 356 357 357 355 354 354 353 352 348
309 310 310 311 311 311 311 312 312 312 313 314 314 314 315 315 317 318 319 319 319 320 319 319 319 319 320 321 322 323 324 324 324 324 324 323 323 324 325 326 328 328 326 323 323 323 323 324 325 326 329 331 331 331 335 339 340 341 342 342 341 340 340 343 345 345 345 346 348 352 355 357 356 355 355 355 356 355 354 353 353 351 350 349 346 344 345
310 310 310 311 312 311 311 312 312 312 312 313 314 314 314 314 315 317 318 318 320 320 320 319 319 320 321 322 323 323 324 323 323 323 323 322 322 323 324 325 327 327 324 321 321 321 321 322 324 325 327 329 330 331 333 336 338 339 338 338 339 338 336 336 338 339 339 339 341 343 346 349 349 350 350 350 351 350 349 348 347 345 344 342 340 340 342
310 310 309 311 311 312 311 311 311 311 312 312 313 314 314 314 314 315 317 317 318 319 320 320 320 321 321 322 322 322 322 322 322 322 322 322 322 322 322 323 325 326 323 320 320 320 320 321 323 324 325 327 328 330 331 333 336 337 336 335 335 336 335 333 333 333 334 334 334 336 338 339 341 342 342 343 343 342 341 341 340 339 337 336 337 339 341
310 309 309 310 311 312 312 311 311 311 311 311 312 313 313 313 313 313 315 316 316 317 318 319 319 320 320 320 320 320 320 321 321 321 322 322 321 320 320 320 321 323 322 319 318 318 319 320 322 322 324 326 327 328 329 331 334 335 334 332 332 332 333 332 331 331 330 331 331 331 331 331 333 334 335 335 335 335 334 335 335 334 332 332 333 336 338
309 309 309 309 310 311 312 311 311 311 311 311 311 312 312 312 312 312 313 313 314 315 316 317 318 318 319 319 319 319 319 319 319 320 320 320 319 319 318 318 318 319 319 318 317 317 317 319 320 321 322 324 325 326 327 330 332 332 331 331 330 329 328 328 328 329 328 328 328 328 327 327 327 328 329 329 329 330 330 330 329 328 327 327 328 330 332
309 309 309 309 309 311 311 311 311 311 311 311 311 311 311 311 311 311 311 311 312 313 314 315 316 317 317 317 317 317 317 317 318 318 318 318 317 317 317 317 316 316 317 317 316 315 315 317 319 319 320 322 324 324 325 327 329 330 328 328 328 328 326 325 325 325 325 325 325 325 324 323 323 324 325 325 326 325 325 324 324 323 322 322 323 324 324
309 309 309 308 309 310 311 311 311 311 310 310 310 310 310 310 310 310 310 310 311 311 312 313 314 314 315 315 315 314 314 315 315 316 316 316 316 316 315 315 315 315 315 315 314 314 314 315 317 317 317 319 322 322 322 323 325 325 325 324 324 324 324 323 322 322 321 321 321 321 320 320 319 320 320 321 322 322 321 320 319 319 319 319 319 319 319
309 309 309 309 308 310 311 311 311 310 310 310 310 310 310 310 310 309 309 309 310 310 311 311 312 312 313 313 313 313 313 313 313 314 314 315 315 314 314 313 313 313 313 313 313 313 313 313 314 315 315 316 318 320 320 320 321 321 321 320 320 320 320 320 320 319 319 318 318 318 318 317 316 316 316 317 317 318 318 318 317 316 316 316 316 316 316
309 309 309 309 308 309 311 311 310 310 310 310 309 309 309 309 309 309 309 309 308 309 309 310 310 311 311 312 312 312 312 311 311 312 312 312 312 312 312 311 311 311 311 312 312 313 312 311 312 312 313 314 315 317 317 317 318 318 318 317 316 316 315 315 316 316 316 316 315 315 314 314 314 313 313 313 313 314 314 315 314 314 314 313 314 314 314
309 308 308 308 308 309 310 310 309 309 310 309 309 309 309 309 309 309 309 308 308 308 308 309 309 309 310 310 310 310 311 311 310 310 310 310 310 310 310 310 309 309 310 310 310 311 311 310 310 311 311 312 313 313 314 314 315 315 315 314 314 313 313 312 312 313 313 313 312 312 311 311 311 311 311 311 311 311 311 311 311 310 311 311 311 311 311
308 308 308 308 308 309 309 309 309 310 310 309 309 309 308 308 308 308 308 308 308 308 308 308 308 308 309 309 309 309 310 310 310 309 309 309 309 309 309 309 308 308 308 308 308 308 309 309 309 310 310 310 310 310 311 311 312 312 312 312 312 312 311 311 310 310 310 310 310 310 309 309 309 308 308 308 308 308 308 308 308 308 307 308 308 308 308
307 307 307 307 308 308 308 309 309 310 310 309 308 308 308 308 308 308 308 308 308 308 308 307 307 307 307 307 308 308 308 309 309 309 309 308 308 308 308 308 307 307 307 307 306 306 307 307 307 308 308 308 308 308 307 308 308 309 309 310 310 310 309 309 308 308 308 308 308 308 307 307 307 306 306 306 306 306 305 305 305 305 305 305 305 305 305
307 306 306 307 308 308 308 309 309 309 309 309 308 308 308 308 308 307 307 308 308 308 307 307 307 307 307 307 307 307 307 308 308 309 309 308 308 308 307 307 307 306 306 306 305 305 305 306 306 307 307 306 306 306 305 305 306 306 306 307 307 307 307 307 307 307 307 306 306 306 306 305 305 305 304 304 304 304 304 304 303 303 303 303 303 303 303
306 306 305 306 307 308 308 309 308 308 309 309 309 308 308 307 307 307 307 307 307 307 307 307 307 307 307 307 307 307 306 306 307 307 308 308 308 307 307 306 306 306 306 305 305 305 304 304 305 305 306 305 305 305 304 304 304 304 304 304 305 305 305 305 305 305 305 305 305 305 304 304 304 304 304 303 303 303 303 302 302 302 302 302 301 301 301
306 305 305 305 307 307 308 308 308 308 308 309 308 308 307 307 307 307 307 307 307 307 307 306 306 306 307 307 307 306 306 306 306 306 306 307 307 307 306 306 306 305 305 305 305 304 304 304 304 304 304 305 304 304 303 303 303 302 302 302 303 303 303 303 303 304 304 303 303 303 303 303 303 302 303 302 302 302 302 302 301 301 301 300 300 300 300
305 305 305 306 306 307 308 308 308 308 308 308 308 307 307 307 307 306 306 306 306 306 306 306 306 306 306 306 306 306 306 306 305 305 305 305 306 305 306 306 306 305 305 304 304 304 303 304 304 304 304 304 303 303 303 303 302 302 302 301 301 301 301 301 301 301 302 302 302 302 302 302 301 301 301 301 301 301 301 301 301 300 300 300 300 299 299
305 305 305 305 306 307 308 308 307 307 308 308 308 308 308 308 307 306 306 306 306 306 306 306 306 306 306 306 306 306 306 306 305 305 305 305 305 305 305 305 305 304 304 304 303 303 303 303 303 303 303 303 303 303 302 302 302 301 301 301 300 300 300 300 300 300 300 300 300 300 300 300 300 300 300 300 300 300 300 300 300 300 299 299 299 298 298
305 305 305 305 306 307 307 307 307 307 308 307 307 307 308 307 307 306 306 306 306 306 306 305 305 305 306 306 305 305 305 305 305 305 304 304 304 304 304 304 304 304 303 303 303 303 303 303 302 303 303 302 302 302 302 301 301 301 301 300 300 300 300 300 300 300 299 299 299 299 299 299 298 299 299 299 299 299 299 299 299 299 298 298 297 297 297
305 305 305 305 306 307 307 307 307 307 307 306 306 306 306 307 306 306 306 305 306 306 305 305 304 304 304 305 305 305 304 304 304 304 304 303 303 303 303 303 303 303 303 302 302 302 302 302 302 302 302 302 302 302 301 301 301 301 301 300 300 300 299 299 299 299 299 299 299 298 298 298 298 298 298 298 297 297 297 297 297 296 296 296 295 295 294
304 304 304 304 306 307 307 306 306 306 306 305 305 305 305 305 306 305 305 305 305 305 305 305 305 304 304 304 304 304 304 304 304 304 303 303 303 303 303 303 302 302 302 302 302 302 302 302 302 301 301 301 301 301 301 301 301 301 300 300 300 300 299 299 299 299 298 298 298 298 298 298 298 298 297 297 297 296 296 296 295 295 295 295 295 294 293
303 303 303 304 305 306 307 306 306 306 305 305 305 305 304 304 305 305 305 305 305 305 305 305 305 304 304 303 303 304 304 304 304 303 303 303 303 302 302 302 302 302 302 301 301 301 301 301 301 301 301 301 301 301 301 300 300 300 300 300 300 299 299 299 299 299 298 298 298 298 298 298 298 298 298 297 297 296 296 296 296 296 296 296 295 295 294
Wind_Speed
18 19 18 17 16 15 15 16 18 18 16 17 17 16 17 16 10 7 6 8 5 7 11 10 9 8 10 11 6 8 11 12 13 11 9 9 10 11 9 4 4 5 6 11 16 18 20 25 27 27 28 30 29 29 30 32 33 32 33 34 34 35 35 35 36 38 37 36 36 36 36 36 34 33 32 32 31 32 32 31 30 29 28 29 29 28 29
17 19 17 17 17 15 15 19 21 18 15 18 19 18 20 19 13 12 11 10 4 6 9 6 9 10 10 11 9 10 12 13 14 15 14 12 10 13 16 13 10 7 4 3 6 12 17 21 24 24 25 27 28 29 30 32 32 32 33 34 33 34 35 34 35 36 37 36 36 36 37 37 36 34 33 32 31 31 33 32 31 30 30 29 29 29 28
14 16 16 16 16 15 17 20 20 18 17 19 19 17 17 17 14 15 15 11 5 4 8 6 8 12 13 12 12 12 12 14 15 13 12 13 11 12 14 12 11 9 6 5 8 7 5 12 20 22 22 25 28 29 29 31 31 32 33 33 33 33 33 32 32 34 36 35 35 36 37 37 37 36 33 33 32 31 32 33 31 31 31 30 30 29 28
10 12 14 15 15 17 19 18 18 19 17 16 15 13 12 13 13 13 12 9 5 3 6 7 8 10 12 12 12 10 11 13 14 12 11 12 11 12 13 11 10 10 7 3 2 6 9 10 14 17 19 22 26 27 27 30 31 30 31 32 32 32 31 30 31 33 35 35 34 36 37 37 38 37 34 33 33 31 31 33 33 31 31 31 30 29 29
9 12 14 14 13 14 13 13 17 18 17 16 15 14 14 15 14 10 8 8 5 4 6 7 7 8 8 9 9 9 10 10 10 10 11 12 11 12 13 12 11 11 9 6 3 4 8 9 10 14 16 18 22 25 25 27 29 29 29 30 30 31 31 30 31 32 34 34 34 35 37 37 37 38 36 33 33 32 30 31 33 31 30 31 30 29 29
9 12 14 13 12 11 9 9 14 16 15 16 16 15 15 15 13 9 9 11 7 4 9 8 7 7 6 6 6 10 11 9 9 10 11 12 12 12 12 12 13 12 10 10 11 11 8 6 8 15 20 21 22 24 25 25 28 29 28 28 30 32 32 31 31 32 33 34 34 35 36 36 36 37 37 34 33 32 30 30 32 31 29 29 30 30 29
8 10 11 11 10 9 9 10 11 12 12 13 15 17 17 17 16 14 15 17 10 4 10 7 6 6 6 6 10 14 13 11 11 11 11 12 12 12 11 11 12 12 11 12 13 15 14 10 8 11 18 22 22 24 25 25 28 30 28 27 30 31 32 32 32 33 34 34 34 34 35 36 35 36 36 35 33 32 31 30 30 31 30 29 29 30 29
7 7 8 9 8 9 12 13 12 12 10 9 11 14 15 16 14 12 15 16 9 8 10 6 5 6 5 4 11 15 14 13 12 11 11 12 13 12 11 11 12 12 13 14 15 17 17 15 13 12 13 19 22 24 26 26 27 29 27 26 29 31 32 32 33 34 35 34 34 34 34 35 34 35 36 35 34 33 31 29 29 29 30 29 28 29 30
6 7 8 8 9 11 12 10 7 5 4 3 3 5 9 11 10 11 14 15 13 14 10 7 6 7 7 2 7 14 15 13 13 12 11 13 13 13 13 14 14 16 16 17 18 19 19 18 17 16 14 17 22 24 27 27 27 29 28 26 29 32 33 34 34 35 35 35 34 34 34 35 35 35 35 35 35 33 31 28 28 28 28 28 28 28 29
6 7 7 7 9 9 7 3 5 7 6 5 3 4 5 9 14 14 14 15 15 13 11 10 10 8 6 4 4 12 15 13 13 13 12 13 14 14 17 17 18 19 20 21 21 21 21 20 21 21 20 20 20 22 27 27 27 28 29 27 29 33 34 35 35 35 35 35 35 34 34 35 34 34 35 35 35 34 32 29 27 27 27 27 28 28 28
6 7 7 7 8 6 1 2 3 4 5 5 5 7 5 8 15 15 14 15 15 14 13 13 10 6 3 2 5 11 14 14 14 13 13 14 15 16 18 19 20 22 22 23 23 22 22 22 21 22 23 24 22 19 26 29 28 28 30 30 31 34 36 35 34 34 34 35 35 34 34 34 33 34 34 35 35 34 33 31 28 27 26 26 26 27 27
8 9 8 6 7 4 2 3 3 5 6 5 6 9 4 8 13 12 12 13 14 14 13 11 9 7 4 5 7 11 13 13 13 14 14 14 15 16 18 20 21 22 22 22 22 21 22 23 24 23 22 23 23 19 24 29 28 28 32 35 33 33 34 34 33 33 34 35 35 34 33 34 34 34 33 33 33 33 33 31 29 27 26 26 25 26 26
8 9 9 7 7 2 4 5 7 8 7 5 6 5 1 7 10 10 10 11 12 14 14 10 7 5 4 6 9 11 12 12 13 15 16 17 17 18 19 22 22 21 21 21 22 23 23 25 27 26 22 20 21 20 23 27 29 31 34 33 31 30 32 33 33 33 33 34 35 34 33 34 34 33 32 31 32 33 32 31 31 29 27 26 25 25 26
7 7 7 8 7 2 8 10 7 6 6 6 3 1 2 4 7 9 9 9 10 12 13 11 10 8 7 8 10 12 13 12 13 15 17 18 19 20 23 24 23 22 22 22 23 24 25 26 28 26 22 20 20 20 21 27 31 32 30 30 29 30 32 33 32 32 33 33 34 33 33 34 34 33 33 31 31 33 32 30 31 31 29 27 25 24 25
6 7 7 7 5 4 13 15 7 2 3 3 0 1 1 3 6 7 7 7 8 10 11 12 14 14 13 12 12 14 14 13 13 15 16 17 18 20 23 25 25 25 23 23 24 25 26 28 30 26 19 19 19 18 21 29 32 29 27 29 30 29 31 33 32 32 33 33 33 33 33 34 34 33 32 32 31 32 32 30 29 30 29 28 25 24 24
4 6 5 3 3 5 11 12 6 3 1 1 1 2 1 1 3 4 4 4 6 8 10 12 14 13 13 14 13 13 14 13 13 14 15 17 19 21 23 25 27 27 24 24 24 26 27 29 29 26 19 18 18 17 22 30 31 28 26 29 30 29 30 32 31 31 32 32 33 33 32 33 33 32 32 32 30 31 32 30 28 27 28 28 26 24 23
5 7 7 8 9 9 9 7 7 7 3 2 1 3 3 3 2 2 3 4 5 7 9 11 12 11 11 14 14 13 13 13 12 13 15 17 19 22 23 25 27 27 26 26 25 25 28 28 26 24 21 18 16 15 22 29 29 27 27 28 29 29 30 31 31 31 31 31 32 33 31 31 33 33 32 31 29 29 30 29 27 26 26 26 26 25 24
8 9 10 10 11 10 9 8 9 10 6 2 2 3 4 3 3 3 4 4 5 7 8 9 10 9 10 12 12 12 12 12 12 12 14 17 20 22 23 25 28 28 27 26 25 25 28 28 24 22 20 16 14 14 21 29 30 27 26 27 29 29 28 29 30 31 31 31 32 32 31 31 31 31 32 31 29 28 29 28 26 25 25 25 25 25 24
9 8 6 8 10 11 11 11 11 11 10 8 5 4 4 4 4 5 5 5 5 7 8 10 10 10 10 10 10 11 11 11 12 12 12 15 19 22 23 24 26 27 24 24 25 25 27 27 23 21 21 13 11 15 17 22 28 27 25 26 28 28 28 29 29 31 32 32 31 32 31 31 31 30 30 30 29 28 28 27 26 25 25 24 24 24 24
9 11 11 12 15 13 11 10 9 8 9 11 9 6 5 5 6 7 8 7 6 6 8 9 10 12 12 9 9 11 10 9 10 11 11 13 17 20 22 24 25 24 22 23 26 25 25 26 22 19 21 17 4 12 14 17 23 24 23 25 27 27 28 29 29 30 32 32 31 31 31 31 31 30 30 31 30 30 30 29 27 26 26 25 24 24 23
10 11 10 14 16 12 9 10 11 9 9 11 10 8 8 9 8 9 10 9 7 7 9 9 9 11 12 9 8 10 10 9 9 11 12 15 16 19 23 25 25 23 23 24 26 26 24 23 20 17 18 19 11 3 10 16 20 20 20 24 27 27 28 28 28 29 30 30 31 31 30 30 30 29 30 31 30 29 31 31 30 28 27 26 26 25 24
8 9 11 14 12 11 11 14 17 15 13 13 12 10 11 12 11 10 10 10 9 9 10 10 8 9 11 10 8 9 9 9 10 12 14 15 16 20 24 26 25 24 25 25 25 25 24 22 22 20 17 15 15 11 7 13 17 18 19 22 24 25 27 27 27 28 28 28 31 31 30 29 28 26 26 28 29 28 29 30 30 29 27 26 26 26 24
9 12 14 13 10 11 14 17 19 17 15 15 15 13 12 13 12 11 11 10 10 10 10 9 9 9 10 11 10 9 9 9 10 13 14 15 17 19 22 24 25 25 26 26 24 25 26 25 24 21 18 16 17 15 8 8 12 15 19 23 24 25 26 26 28 30 28 28 30 31 28 29 31 28 22 21 23 26 29 30 29 28 27 26 26 26 25
11 12 12 13 12 13 16 19 19 18 16 15 16 15 15 13 12 12 12 11 10 10 8 8 9 9 11 12 11 10 10 10 11 13 13 14 16 18 20 24 25 25 25 25 25 25 27 28 26 22 19 20 20 16 9 7 7 9 13 16 18 22 25 26 28 30 30 29 29 28 26 28 32 30 26 22 18 17 23 29 29 26 26 25 25 27 27
9 8 10 13 13 14 15 16 15 15 15 14 15 16 15 13 13 14 13 11 11 10 8 8 9 9 11 13 12 10 10 11 12 13 13 13 15 17 20 23 25 24 23 24 25 25 27 28 27 23 20 21 23 21 13 7 6 5 7 14 17 19 24 27 28 30 29 28 29 28 26 28 30 28 26 24 21 18 19 22 24 23 23 22 21 23 23
8 8 10 11 10 10 13 13 13 14 14 11 12 15 15 15 15 15 13 11 11 11 10 8 8 8 10 13 13 11 11 12 12 12 12 12 13 15 18 20 24 26 24 23 25 26 27 29 28 24 22 25 29 28 19 9 6 4 2 8 14 14 14 17 23 27 26 26 28 26 22 24 27 28 26 24 24 25 23 19 18 19 19 19 18 18 18
7 6 8 10 10 10 12 13 14 15 13 9 8 12 16 18 17 15 13 12 12 12 12 10 8 8 9 12 13 12 11 11 10 10 11 11 10 12 15 19 24 27 25 22 24 27 27 28 29 26 25 28 31 29 20 11 7 7 7 7 6 8 10 9 6 9 12 17 21 18 13 10 10 16 22 25 26 27 24 20 18 18 16 16 17 16 16
7 5 6 8 9 11 13 15 15 13 11 10 9 9 12 14 14 12 11 11 10 10 11 11 10 9 9 10 12 11 10 9 8 8 11 10 10 12 16 18 22 26 23 20 23 26 27 28 28 27 27 30 32 29 21 16 14 13 11 10 9 6 4 2 1 4 8 11 17 19 18 14 5 3 4 11 19 24 23 20 19 19 17 16 16 15 16
7 6 5 5 7 10 13 14 14 13 13 15 14 10 7 7 8 9 9 9 9 9 9 9 10 9 8 9 10 9 8 8 7 7 9 10 10 13 15 17 20 22 20 19 22 25 26 27 27 28 30 33 34 32 25 19 18 19 18 16 13 7 4 5 4 1 6 10 14 18 22 24 20 10 1 2 4 14 19 20 20 20 20 18 16 13 13
6 5 5 6 7 10 12 13 13 14 14 15 15 13 12 11 7 5 6 7 7 7 6 6 6 6 7 9 10 8 7 7 8 8 8 8 10 12 14 15 16 16 15 17 21 24 25 25 26 28 32 34 34 35 32 24 20 21 21 20 20 18 15 10 5 3 1 6 10 15 20 23 24 24 19 9 2 4 10 16 20 21 19 17 14 11 11
8 6 6 6 7 9 11 11 11 12 12 13 14 15 15 14 12 9 5 4 5 5 4 4 5 6 7 8 8 7 7 7 7 6 6 8 10 11 13 14 13 11 12 16 19 21 23 25 26 29 32 33 34 37 35 29 26 26 23 21 22 21 17 15 13 10 7 4 6 12 17 19 20 23 24 21 14 10 11 16 19 18 16 14 12 9 8
9 8 7 6 6 7 9 9 10 11 12 12 14 14 13 12 13 12 10 7 4 4 3 4 5 6 7 7 7 6 6 5 5 5 6 8 9 10 12 14 13 11 13 16 18 19 21 24 27 30 31 31 33 37 35 30 28 29 26 21 22 23 20 14 14 15 13 11 13 17 20 22 24 25 23 22 21 18 17 17 18 17 15 13 11 7 8
8 8 8 7 6 8 9 9 9 11 11 10 10 10 10 11 11 11 11 11 8 4 1 2 3 3 3 5 5 5 5 5 4 5 7 8 8 9 11 13 12 10 14 16 18 19 21 23 25 28 29 29 31 35 35 31 28 27 27 25 23 24 25 22 15 14 16 17 18 20 21 21 23 25 25 25 25 23 20 19 19 18 16 14 11 8 11
7 8 8 7 6 6 7 8 8 9 9 9 8 8 9 12 12 11 12 14 12 10 7 5 3 5 6 7 7 8 8 6 5 6 8 10 10 10 11 13 11 9 12 16 19 20 21 22 24 25 25 26 28 31 33 32 28 25 27 29 26 24 25 24 21 19 21 24 25 25 25 23 22 22 24 25 25 24 22 21 22 21 20 17 14 12 12
7 8 9 9 8 6 6 7 8 8 8 9 9 8 9 11 13 15 16 15 14 15 15 12 9 9 10 10 10 10 9 8 7 8 9 10 11 10 11 12 12 11 11 14 18 18 17 19 22 22 21 22 25 28 30 29 26 23 25 28 28 27 25 24 23 24 26 27 28 30 30 28 26 25 24 24 23 21 20 21 22 22 21 20 20 20 19
9 9 9 9 9 8 7 7 9 9 8 8 9 10 11 13 15 16 17 17 17 18 19 17 14 12 11 11 11 11 10 9 9 9 9 10 10 10 10 11 13 13 12 13 17 18 17 18 20 20 19 19 21 24 26 25 22 21 22 25 27 28 27 25 26 28 29 29 28 27 26 27 28 28 26 25 24 22 21 21 22 22 22 22 23 23 24
9 9 9 9 10 9 8 8 9 10 10 10 11 12 13 14 15 16 18 19 19 18 18 17 16 14 13 13 13 12 12 12 11 11 11 11 10 9 10 11 13 14 12 13 17 19 19 18 18 17 16 17 18 20 23 23 20 19 20 22 23 24 25 26 28 30 30 30 29 27 25 24 26 27 27 27 25 24 24 23 22 23 24 24 24 24 25
9 10 10 10 10 9 8 7 9 10 11 11 12 14 14 14 15 15 16 18 19 18 17 16 16 16 15 15 15 14 14 15 15 13 12 11 9 9 11 12 13 13 13 14 16 18 19 18 17 15 15 15 16 17 20 22 20 19 20 21 21 21 22 24 26 28 28 28 27 27 25 23 22 24 27 27 26 25 25 25 25 26 26 26 26 26 25
8 8 9 10 10 9 7 7 8 10 11 11 12 13 14 15 14 14 15 16 17 18 18 17 17 16 15 14 14 14 15 17 16 14 13 11 10 10 11 13 14 14 14 15 15 16 18 18 16 15 15 16 14 15 17 19 20 20 21 22 22 22 22 23 24 24 24 24 25 25 24 22 21 23 25 26 25 26 26 26 27 28 28 28 28 28 26
7 7 8 9 10 9 7 7 8 9 9 10 11 12 13 14 14 13 14 14 15 17 18 17 15 15 14 13 13 13 14 15 16 15 14 13 12 12 12 13 15 16 16 15 15 15 17 18 16 14 15 16 14 13 15 16 17 19 20 21 23 25 25 24 23 22 23 24 24 24 23 22 21 21 22 24 25 26 25 25 26 26 27 27 27 28 28
6 7 8 9 10 9 8 7 8 7 7 9 11 12 13 14 14 13 13 14 14 16 17 17 15 14 14 14 15 14 14 14 16 16 16 15 14 12 11 13 16 18 17 16 16 15 16 18 17 15 15 15 15 14 14 14 15 17 18 18 20 22 23 23 23 22 22 22 23 23 23 22 22 21 21 22 24 25 25 26 26 27 27 27 26 26 26
7 8 8 9 9 8 9 9 8 6 5 8 9 10 12 13 13 13 13 14 14 15 16 16 16 16 15 15 16 16 16 15 15 17 18 18 16 13 12 14 18 20 19 17 18 17 17 18 18 17 16 16 16 15 14 14 15 16 17 17 18 18 20 22 23 23 22 21 22 21 21 21 22 22 23 23 23 24 25 26 26 26 28 29 28 27 26
7 8 8 9 10 9 9 7 6 4 5 8 8 8 10 12 13 13 14 14 14 15 15 15 16 17 16 16 16 16 17 17 15 14 15 17 18 18 16 15 18 20 20 19 19 19 18 17 18 18 18 17 17 17 18 17 17 16 16 16 16 17 18 20 21 22 22 22 22 21 20 20 21 22 24 24 23 23 25 26 27 27 28 29 29 28 27
8 8 8 9 10 9 7 5 5 5 5 6 7 8 10 11 12 13 14 14 14 15 15 15 15 16 16 16 15 14 16 19 19 16 12 12 16 19 19 17 17 19 20 20 20 20 20 19 18 18 19 19 19 20 21 21 19 18 17 17 16 16 17 19 20 21 23 23 23 22 21 21 21 22 23 24 24 24 24 26 28 28 29 30 30 29 29
8 8 9 8 10 9 8 7 7 6 4 4 6 8 9 10 11 12 13 14 14 15 15 15 15 16 15 15 14 14 15 18 21 20 16 12 12 15 18 18 18 19 19 19 20 22 22 21 20 19 19 19 19 20 21 21 21 20 20 19 19 18 18 18 19 20 21 22 23 22 21 21 22 23 24 25 25 25 24 25 27 29 30 31 31 32 32
8 8 8 9 11 10 8 8 7 5 4 4 7 8 8 9 10 11 11 13 14 14 15 15 15 16 16 15 14 14 14 16 19 21 19 16 14 16 18 19 19 20 20 20 20 21 22 22 21 21 21 20 20 20 20 21 21 21 21 21 21 21 21 20 20 20 20 21 21 21 20 21 21 22 23 23 24 24 23 23 26 29 31 31 31 31 32
8 8 7 8 10 8 4 4 6 6 6 6 7 6 7 9 10 10 10 11 13 14 15 15 15 15 16 17 16 14 13 13 15 17 18 16 15 16 18 19 19 19 20 22 22 22 22 22 22 22 22 21 21 21 20 20 20 21 21 21 21 22 23 23 24 24 23 23 22 22 21 21 21 22 22 22 22 22 22 23 25 27 28 29 29 31 32
7 7 7 8 11 9 6 4 6 7 6 6 7 6 6 8 10 9 9 10 12 13 14 14 15 15 16 16 16 15 14 13 13 13 14 14 14 15 17 18 18 17 18 20 22 23 24 24 24 23 23 22 22 22 21 21 21 20 20 20 20 21 22 22 23 24 24 24 23 24 24 24 23 23 23 23 22 22 22 23 23 24 25 27 29 30 31
6 7 7 8 11 11 9 7 7 5 5 6 8 7 6 7 8 9 9 10 11 12 12 12 13 15 16 15 15 16 16 15 14 13 14 15 16 16 17 19 19 18 17 18 20 22 24 25 25 24 24 23 23 23 22 22 22 22 21 21 21 22 22 22 22 22 23 23 23 24 25 26 26 26 25 25 25 24 24 23 23 23 25 27 29 30 30
5 6 6 8 9 8 7 7 5 5 4 6 8 8 7 7 8 9 10 10 10 11 11 11 12 13 15 15 15 15 16 15 14 14 15 16 17 18 18 19 20 20 19 19 19 21 23 24 24 24 23 23 23 23 23 23 22 22 22 21 20 20 21 21 22 22 21 21 22 23 24 24 24 24 25 25 26 27 26 26 26 27 28 29 29 28 28
5 6 7 8 9 7 6 5 3 4 5 7 8 7 7 8 8 8 9 10 9 10 11 11 11 12 13 14 13 13 13 12 12 13 13 14 14 15 16 17 18 19 19 19 19 20 21 22 22 23 23 22 22 22 22 22 21 21 21 20 20 19 19 19 20 20 20 20 20 20 21 21 21 22 22 23 24 25 26 26 27 27 27 27 26 26 25
6 7 8 9 9 7 5 4 3 4 6 6 6 6 7 8 8 8 9 10 9 9 11 11 10 10 11 12 13 13 13 12 11 12 12 12 13 13 14 15 16 16 17 18 18 18 19 20 21 21 21 21 22 22 22 21 21 21 20 20 20 20 20 20 19 19 19 19 19 19 19 19 19 20 20 20 20 21 21 21 21 21 21 22 22 23 23
Wind_Direction
266 272 276 279 278 273 276 286 280 274 289 304 298 288 289 294 276 226 236 257 230 90 57 32 33 49 34 6 13 67 44 24 30 36 54 91 116 106 80 72 119 133 173 190 192 192 188 188 189 189 190 192 194 193 193 195 196 194 192 191 189 186 189 192 190 189 189 188 190 191 192 193 195 197 198 199 198 196 195 199 201 201 199 197 198 200 202
270 270 273 280 280 276 279 280 270 267 286 294 290 292 292 288 264 228 238 256 235 106 91 60 12 14 18 3 15 50 39 25 23 23 40 66 81 70 52 30 19 21 4 309 236 200 182 179 185 190 188 188 192 194 193 195 196 193 190 190 189 187 190 194 192 189 189 189 190 190 191 193 195 197 198 199 200 197 195 198 201 201 201 197 196 199 200
270 271 273 275 274 269 269 270 264 264 275 278 279 283 285 288 268 236 239 250 229 97 76 68 22 8 9 15 34 38 15 8 12 11 31 52 54 51 47 34 24 32 38 354 322 298 229 179 181 189 189 186 192 196 194 195 197 194 189 189 190 189 191 194 192 190 189 190 190 190 191 192 194 196 197 198 201 200 196 197 200 202 202 199 196 198 199
268 271 270 266 263 259 258 261 261 263 265 263 270 276 278 288 280 251 249 257 226 111 58 58 47 20 10 19 26 15 360 3 8 10 24 35 33 30 30 25 25 41 63 81 269 268 259 224 197 198 195 188 192 197 196 194 196 197 192 188 188 188 190 193 192 190 190 190 191 191 191 192 193 195 197 198 200 202 198 196 200 203 204 203 200 198 198
272 271 270 269 267 260 255 253 251 253 258 258 263 272 274 282 285 271 260 255 223 118 75 67 61 39 18 14 9 5 9 11 12 20 23 20 18 17 15 12 13 23 25 8 345 257 243 237 229 227 218 204 197 197 198 195 194 199 197 190 187 187 188 192 193 191 191 191 192 192 192 193 193 195 197 198 199 201 199 197 198 202 205 206 205 201 198
274 280 281 277 266 255 252 251 244 242 249 255 258 264 269 274 280 289 292 276 257 99 76 61 54 48 14 352 16 35 33 21 13 18 19 15 13 10 9 6 2 2 358 344 336 329 313 280 243 233 227 221 207 197 198 196 192 199 201 191 187 186 186 189 192 192 192 192 194 194 193 194 194 194 197 199 199 200 200 198 197 201 205 207 208 207 204
267 282 282 267 253 258 272 277 271 263 259 261 264 264 264 264 268 284 287 271 257 99 83 66 44 35 359 6 51 52 38 25 14 8 7 8 6 5 4 357 348 345 343 335 328 323 319 311 288 255 234 227 212 196 196 196 192 198 202 192 185 185 185 188 191 191 192 193 195 195 194 194 194 195 197 199 199 199 200 200 198 199 203 207 209 210 210
259 265 264 257 265 288 288 282 279 275 273 282 281 269 260 259 270 304 307 288 296 35 58 57 38 14 343 28 62 48 32 27 17 5 2 360 356 357 354 345 337 333 328 322 319 314 311 306 298 287 254 234 221 200 195 198 194 196 201 194 184 183 186 188 190 192 192 193 195 195 194 194 194 195 196 198 199 199 199 201 200 199 202 207 209 210 211
246 257 258 263 279 286 280 274 284 300 318 359 335 282 278 288 314 346 337 326 349 20 23 9 8 355 321 316 57 36 24 22 14 6 2 355 350 349 344 337 331 326 319 318 321 318 313 307 297 292 274 247 230 207 196 200 197 194 199 197 186 185 187 189 191 192 192 192 194 194 194 194 194 195 196 197 198 198 198 200 200 199 201 206 209 210 210
236 256 262 263 267 265 264 297 6 13 10 25 13 281 292 345 1 2 348 340 353 9 6 353 356 348 303 269 40 23 12 11 10 5 360 354 350 346 341 335 329 326 324 323 321 314 305 299 292 287 282 271 247 211 194 199 199 193 198 200 191 187 189 191 192 192 191 192 193 193 194 195 195 195 195 196 198 198 198 199 200 200 201 204 208 210 210
240 245 247 250 257 252 250 16 3 344 338 351 321 263 259 9 10 5 356 346 346 358 360 356 1 3 311 307 20 10 3 5 6 1 356 353 350 345 341 336 330 328 324 317 310 303 295 289 283 275 271 271 262 220 191 196 202 197 199 201 196 191 190 191 191 191 190 191 192 192 194 194 194 193 193 195 197 198 199 201 202 201 199 202 207 210 211
252 251 245 247 261 260 71 37 326 313 328 334 280 246 255 5 1 360 7 2 354 353 351 354 15 30 11 348 352 354 0 6 2 358 357 350 345 343 342 340 333 324 319 312 306 303 298 294 292 282 263 256 258 234 196 193 200 201 201 202 199 194 190 189 190 190 190 192 192 192 193 194 194 193 193 194 196 197 200 202 203 203 200 200 205 208 211
253 254 251 253 257 257 55 11 332 326 315 283 257 244 300 5 353 354 11 16 3 349 345 350 5 19 13 353 342 344 359 9 4 358 356 349 343 341 341 341 336 326 319 314 307 302 298 295 294 286 264 248 250 237 205 194 199 203 202 201 199 193 189 189 191 191 191 192 192 193 195 196 195 194 194 194 194 195 198 201 202 204 204 202 203 206 209
252 247 255 263 259 345 4 338 327 331 302 265 252 346 10 5 360 356 1 13 6 350 347 345 335 333 344 352 352 350 353 4 6 358 354 351 346 342 341 342 340 333 324 317 311 306 302 298 294 284 260 241 245 238 209 195 200 203 199 197 196 192 188 189 192 193 193 194 193 194 197 197 194 192 193 194 194 194 196 199 200 203 205 205 203 204 207
267 241 239 257 252 351 347 332 320 326 320 299 23 49 2 4 14 2 353 5 5 350 346 340 333 336 341 342 353 355 350 359 7 356 350 352 348 343 342 341 338 334 326 319 314 310 307 304 300 291 262 234 239 239 211 198 199 198 194 193 194 191 187 189 193 194 195 195 193 195 198 196 192 191 191 193 194 193 194 197 199 201 204 206 205 204 204
283 248 237 275 294 327 337 333 320 306 348 57 356 316 291 326 10 2 340 347 350 343 343 336 329 336 342 337 344 352 348 354 2 353 347 350 348 344 341 338 335 331 326 321 315 310 309 305 300 299 282 245 235 233 212 199 194 191 190 190 189 188 187 189 193 195 196 195 195 198 199 195 192 191 191 192 194 193 193 196 197 199 202 204 206 208 208
286 277 278 295 302 306 314 311 298 296 283 160 246 291 279 279 309 328 311 313 325 330 333 328 323 332 340 334 337 348 348 348 353 350 347 347 345 342 339 336 335 331 325 323 318 314 314 309 303 303 290 255 235 228 210 195 187 187 187 185 185 187 188 189 192 195 197 195 196 199 199 194 191 192 190 190 192 191 191 194 196 197 199 202 205 209 211
295 286 276 282 294 307 315 306 295 297 290 238 223 253 262 273 281 281 281 291 309 315 314 314 316 322 327 328 335 342 341 341 346 349 345 343 343 342 338 336 335 331 327 326 324 321 319 316 314 315 299 260 228 218 205 190 184 185 185 183 184 186 187 189 193 196 198 197 196 199 199 195 192 192 190 189 191 190 190 193 195 196 197 199 203 207 210
305 295 287 306 313 313 313 303 294 293 288 275 259 250 256 268 271 276 279 277 284 296 301 303 308 313 317 325 332 334 335 342 345 344 342 341 341 338 332 332 333 330 328 330 329 323 319 318 320 326 320 292 219 198 194 186 184 185 183 182 185 186 187 190 193 197 200 199 197 198 199 196 194 193 191 191 191 189 188 191 193 194 196 197 199 203 207
300 282 291 322 325 312 299 294 296 300 293 282 272 262 257 256 260 269 272 269 268 278 285 290 300 308 313 321 328 326 331 344 343 339 339 338 337 334 332 333 335 333 331 332 331 323 318 319 324 331 334 329 258 188 187 185 185 188 187 184 185 187 188 190 194 200 202 200 196 196 197 195 194 193 192 192 192 190 189 191 191 191 193 196 198 199 201
292 280 305 340 337 316 302 309 318 324 315 298 287 275 263 256 257 266 270 269 268 270 271 276 289 300 306 315 322 320 325 341 343 337 336 335 337 342 340 335 334 335 335 334 330 321 316 323 335 341 338 338 338 260 212 205 200 200 196 187 186 188 190 192 198 202 201 198 195 195 195 191 191 193 193 192 191 191 192 194 193 193 194 194 197 199 200
297 307 331 342 330 308 306 312 310 310 309 301 289 277 268 262 258 262 266 266 266 264 263 271 286 294 295 302 311 313 318 334 339 334 336 340 343 346 342 335 333 337 339 336 330 323 324 334 344 345 339 337 342 334 272 227 221 220 206 190 187 189 191 195 200 202 200 196 193 194 194 188 182 182 185 189 189 189 191 194 194 195 197 197 197 199 200
298 309 319 322 310 298 300 300 298 298 300 296 286 273 265 262 259 259 261 262 266 268 264 266 278 285 286 291 302 308 311 324 334 335 342 350 347 342 340 338 336 336 337 339 336 331 333 337 337 337 345 351 345 333 301 245 240 233 211 194 190 191 194 199 201 201 200 196 192 193 191 181 173 169 167 173 181 184 186 190 193 194 197 199 200 200 201
296 300 310 312 303 297 296 295 294 292 287 284 282 273 264 262 261 259 256 253 256 263 265 262 265 276 286 291 294 299 305 317 331 336 345 352 346 339 341 342 338 334 335 341 342 339 339 340 336 337 351 1 356 343 317 271 259 248 225 211 201 195 197 203 203 202 202 197 192 192 185 173 171 169 160 154 156 164 174 182 188 193 195 197 199 200 202
299 299 307 305 300 301 304 305 304 297 286 278 274 267 259 256 254 251 249 246 245 249 256 260 257 268 290 298 296 295 299 308 321 331 340 346 345 344 345 342 337 335 335 337 340 344 346 345 343 342 349 358 3 3 351 310 281 268 241 237 229 212 206 208 205 201 200 195 191 191 183 171 171 172 165 157 150 143 151 166 175 182 186 187 189 193 196
301 304 311 309 307 315 322 324 321 314 308 297 276 263 255 248 246 247 247 246 246 247 251 256 259 266 282 291 292 291 291 298 311 324 333 340 345 346 344 339 336 337 337 337 343 350 350 348 347 346 348 358 5 7 4 342 310 320 271 237 243 242 240 231 214 203 198 193 192 192 182 171 173 175 172 167 159 150 145 149 157 165 170 172 173 177 182
307 317 330 329 330 335 335 326 312 306 312 319 297 272 258 247 241 239 239 239 242 246 248 250 256 259 264 272 278 279 278 288 306 323 330 339 348 344 339 341 343 341 338 341 349 352 350 351 351 346 348 360 8 9 13 25 16 7 28 31 358 343 343 334 282 234 218 197 186 175 156 151 178 185 178 172 166 159 154 152 153 155 158 162 163 164 166
312 326 349 346 338 333 326 316 307 307 324 343 338 305 272 254 240 230 231 231 232 239 244 244 245 249 255 262 267 269 272 283 304 323 325 333 350 348 340 344 348 344 340 346 354 353 353 354 352 346 349 1 8 9 19 43 50 43 44 39 21 2 348 357 342 287 267 212 178 159 147 147 158 281 231 180 165 161 158 157 156 154 154 159 162 162 164
319 323 345 350 334 326 324 321 323 335 349 351 349 347 327 292 256 233 231 231 225 230 237 238 239 245 255 260 261 265 280 295 304 311 314 324 347 352 343 342 346 346 347 355 358 356 356 354 349 347 354 2 7 12 23 42 50 49 50 46 41 60 124 153 147 221 265 228 187 162 154 153 153 153 133 355 152 162 162 157 153 151 152 157 161 160 163
321 322 337 343 341 342 341 335 334 344 352 352 354 2 5 357 335 281 251 242 232 230 232 234 244 260 265 263 264 271 287 299 305 310 317 334 351 349 340 339 343 347 355 4 2 356 355 352 347 349 356 359 4 15 28 38 43 45 46 43 47 71 101 119 109 67 297 235 192 162 152 148 146 148 150 148 178 199 163 145 140 141 145 152 155 152 154
331 339 345 347 355 358 349 338 335 341 347 352 1 8 9 6 1 351 327 278 247 238 238 244 254 262 263 265 274 282 285 290 304 320 344 4 2 348 336 336 344 355 8 10 4 357 353 349 346 351 357 360 6 17 28 34 38 42 45 41 40 55 85 117 125 116 116 145 143 136 137 131 127 136 147 150 150 150 134 123 123 125 129 133 134 135 151
342 349 353 357 6 3 352 340 338 341 343 352 4 7 3 1 3 3 358 342 293 250 235 239 239 243 258 276 292 298 295 299 318 344 7 10 358 345 338 338 348 14 27 17 8 2 356 349 346 351 357 3 9 18 26 32 36 39 42 42 38 38 44 67 97 105 104 101 94 96 101 104 106 115 124 126 124 123 117 109 106 107 110 115 115 123 160
348 353 358 7 13 5 356 348 342 342 343 350 360 2 1 3 5 2 2 2 355 336 280 244 238 245 289 316 329 334 334 341 354 4 10 6 356 352 349 342 347 20 37 27 16 9 0 349 345 350 359 6 12 18 25 31 35 38 41 41 42 40 36 35 48 72 79 73 68 71 79 84 90 97 101 102 105 108 105 102 103 104 107 113 117 133 157
353 350 355 17 30 12 353 347 341 340 343 349 357 3 4 5 4 1 5 9 9 7 10 18 39 47 35 26 25 21 12 11 16 11 10 12 10 5 356 345 346 13 31 28 23 16 3 350 344 348 359 8 13 19 26 30 32 37 44 45 44 44 42 39 40 49 59 59 57 59 63 64 68 78 88 93 98 101 101 105 111 111 109 108 109 119 135
360 353 356 20 38 30 7 356 347 344 349 355 2 7 8 8 8 8 8 9 8 7 11 19 38 52 48 40 36 32 25 22 23 16 14 19 20 11 358 352 355 7 17 21 22 17 3 351 346 348 356 7 12 17 26 31 31 34 43 48 48 45 43 44 47 51 54 57 58 60 60 59 61 67 75 80 85 90 96 104 108 107 103 100 100 105 113
4 357 358 14 29 32 27 14 358 355 360 1 2 8 12 13 14 14 12 10 9 10 13 18 26 39 48 48 42 34 25 21 22 23 25 27 22 13 7 5 5 4 5 9 12 9 1 354 351 350 355 2 7 14 24 31 33 36 41 46 49 48 43 41 45 52 56 57 57 57 58 60 63 67 70 74 80 85 90 93 95 93 91 92 95 98 102
0 357 358 10 25 35 35 22 8 6 9 8 7 10 13 15 18 18 16 14 13 13 16 20 23 28 39 47 45 37 26 22 24 29 33 31 24 17 16 15 11 8 5 2 0 0 359 356 354 355 360 1 1 11 25 32 36 42 46 46 47 49 49 46 44 47 51 54 55 55 56 58 61 64 68 72 76 80 83 84 84 83 83 84 87 90 90
357 356 358 8 24 39 40 31 21 17 15 14 13 13 14 18 22 23 20 18 17 16 18 23 26 28 33 39 40 35 27 23 23 25 28 30 33 33 29 22 16 12 5 356 354 357 360 359 357 0 6 4 360 8 25 37 44 49 54 55 53 51 51 53 53 52 52 53 55 55 55 55 55 58 63 68 71 75 79 80 79 79 79 80 83 84 84
359 360 0 8 24 37 41 39 35 27 20 19 19 18 19 22 27 29 28 25 22 20 21 25 28 28 29 34 38 36 31 28 25 22 20 24 33 40 38 28 20 12 4 356 356 0 4 5 5 7 8 8 5 9 22 38 51 54 54 59 64 62 56 54 57 61 60 58 58 57 56 55 54 55 59 65 68 71 76 78 79 78 78 79 81 82 83
2 4 5 14 26 30 27 35 43 36 25 22 22 21 22 27 32 36 36 33 29 26 26 29 32 29 25 26 32 35 37 38 35 30 26 28 32 36 35 26 17 11 7 5 5 8 9 10 13 14 11 10 11 14 18 30 45 52 51 54 63 68 66 59 55 56 59 61 62 61 58 57 58 57 58 62 64 66 70 74 75 76 77 78 80 83 83
8 7 10 23 32 23 12 29 53 53 37 31 29 22 21 29 36 41 41 39 37 36 33 33 36 35 30 28 30 32 36 43 46 43 39 37 36 37 36 25 15 12 12 13 14 15 15 17 18 18 17 17 20 24 28 32 41 48 51 51 55 63 69 69 64 60 58 60 64 66 65 65 65 63 60 60 62 65 69 71 73 76 79 79 78 80 82
7 1 8 29 40 26 15 35 61 67 50 44 38 25 22 30 38 44 45 42 41 41 40 37 37 38 37 36 33 30 29 36 47 51 49 44 39 37 36 28 20 18 20 23 23 21 22 23 24 24 26 29 30 33 38 42 45 49 54 56 56 60 68 75 77 76 73 70 70 71 72 72 72 71 68 66 64 66 70 73 73 74 77 80 80 80 82
5 358 4 28 42 33 22 42 80 95 71 60 52 34 27 31 36 41 45 46 44 42 40 37 36 38 39 39 37 32 27 28 36 47 53 51 45 41 38 32 28 27 28 30 30 28 27 28 30 32 35 39 41 44 48 51 51 53 57 60 62 64 67 72 77 81 82 80 77 76 76 77 78 78 78 75 72 71 73 76 77 77 78 79 81 81 82
8 0 1 26 45 39 19 29 76 89 74 70 65 51 40 37 37 40 45 46 46 46 44 39 37 37 37 38 40 38 32 30 31 35 43 50 48 43 39 35 33 34 35 37 38 37 35 33 35 38 42 44 46 49 51 53 54 55 57 60 65 68 68 68 71 76 80 82 82 80 80 80 82 83 83 82 82 81 80 80 81 82 83 82 82 83 84
13 2 355 19 47 40 12 20 61 91 110 101 81 69 58 50 45 45 47 48 49 51 49 45 42 40 39 42 47 47 42 37 35 34 35 39 41 39 39 39 39 38 39 41 43 43 42 41 42 45 47 48 50 52 53 54 55 57 60 63 67 69 69 69 71 74 77 81 84 84 84 84 83 84 84 84 85 85 86 86 87 88 88 87 86 86 86
9 359 356 24 49 43 17 22 54 86 109 86 67 61 62 61 54 48 49 52 54 54 53 53 52 46 42 43 48 50 47 43 40 37 37 40 41 41 43 47 47 44 43 44 45 45 44 44 48 52 54 53 53 55 56 57 58 60 62 64 67 69 70 71 74 76 78 80 83 85 86 86 86 86 87 88 88 88 88 89 89 90 91 92 92 90 89
5 358 2 34 53 50 27 34 54 53 53 63 64 55 52 58 59 55 54 59 62 59 56 57 59 56 50 47 47 46 45 46 45 41 39 42 44 43 43 46 47 47 47 47 47 46 45 45 49 54 57 58 58 58 59 61 63 64 64 64 66 69 72 74 76 79 81 82 83 84 86 88 90 90 90 91 92 93 93 92 91 91 92 93 94 93 92
8 354 355 28 44 36 17 35 63 55 47 63 80 78 61 56 56 53 51 57 65 66 61 57 58 61 60 58 54 50 47 50 51 46 42 43 48 48 47 47 48 49 49 48 47 45 44 46 50 53 56 59 61 61 61 62 63 65 66 67 67 70 73 75 76 78 80 80 81 83 84 86 89 91 92 92 92 93 93 93 92 91 92 92 93 93 92
11 350 353 30 45 35 22 33 51 46 32 50 65 69 67 64 60 53 49 52 61 66 62 57 58 63 65 65 64 61 58 58 59 58 54 52 53 54 52 51 49 49 50 52 51 47 44 46 49 52 55 58 59 59 60 62 64 65 67 68 69 70 73 75 78 80 81 80 81 82 84 85 86 88 89 91 92 92 90 89 88 90 92 94 94 94 95
2 347 3 36 46 40 37 40 26 348 353 46 61 59 57 60 58 52 49 52 60 65 64 58 56 61 66 70 71 69 65 62 61 61 59 58 57 56 53 51 49 48 50 52 52 49 46 45 46 48 51 55 57 58 59 61 62 63 64 66 67 68 69 71 75 78 80 81 81 82 82 84 84 84 85 88 90 90 90 89 90 91 93 93 92 92 93
349 347 13 39 46 47 56 60 25 347 12 52 65 65 65 67 63 57 52 51 56 67 72 68 59 58 66 74 77 75 71 67 62 59 56 55 54 54 53 52 51 51 51 51 50 49 48 47 46 47 49 50 52 54 55 56 58 58 58 58 60 61 62 64 67 70 74 77 80 82 83 84 85 85 85 87 89 89 89 89 89 90 90 89 89 90 91
357 2 23 40 47 50 57 71 75 62 57 57 55 57 62 65 65 65 63 57 53 61 72 74 68 62 64 71 76 78 77 75 70 64 60 55 51 49 49 49 49 50 51 52 51 50 49 48 47 48 48 49 49 50 51 52 53 53 53 54 56 57 57 59 61 64 67 70 73 76 78 80 82 84 86 88 89 90 89 89 89 88 88 87 88 89 90